Hourly Data Report for September 07, 2017

All times are specified in Local Standard Time (LST). Add 1 hour to adjust for Daylight Saving Time where and when it is observed.

RANKIN INLET A
NUNAVUT

62°48'38.000" N
92°06'53.000" W
32.30 m
2303405
71083
YRT

Download Data

Hourly Data (September 2017)
Hourly Data Report for September 7, 2017
Temp Definition
°C
Dew Point Temp Definition
°C
Rel Hum Definition
%
Wind Dir Definition
10's deg

Wind Spd Definition
km/h
Visibility Definition
km
Stn Press Definition
kPa
Hmdx Definition


Wind Chill Definition


Weather Definition


TIME
00:00 Legend Double Dagger 4.9 2.2 83 17 19 24.1 101.55     Mostly Cloudy
01:00 Legend Double Dagger 5.0 2.1 82 18 18 24.1 101.56     LegendNANA
02:00 Legend Double Dagger 5.2 2.3 81 19 18 24.1 101.57     LegendNANA
03:00 Legend Double Dagger 5.4 2.9 84 19 19 24.1 101.55     Mostly Cloudy
04:00 Legend Double Dagger 5.6 3.4 86 21 24 24.1 101.53     LegendNANA
05:00 Legend Double Dagger 5.8 3.8 87 21 22 24.1 101.51     LegendNANA
06:00 Legend Double Dagger 6.0 3.9 86 20 19 24.1 101.51     Mostly Cloudy
07:00 Legend Double Dagger 6.1 3.8 85 19 26 24.1 101.47     LegendNANA
08:00 Legend Double Dagger 6.3 3.7 83 19 30 24.1 101.44     LegendNANA
09:00 Legend Double Dagger 6.7 2.3 73 19 37 24.1 101.38     Mostly Cloudy
10:00 Legend Double Dagger 7.2 2.7 73 20 30 24.1 101.33     LegendNANA
11:00 Legend Double Dagger 7.2 3.3 76 20 31 24.1 101.30     LegendNANA
12:00 Legend Double Dagger 7.4 3.7 77 20 35 24.1 101.20     Mostly Cloudy
13:00 Legend Double Dagger 7.3 3.1 74 19 44 24.1 101.16     LegendNANA
14:00 Legend Double Dagger 7.0 2.8 75 19 40 24.1 101.11     LegendNANA
15:00 Legend Double Dagger 6.8 2.4 74 19 40 24.1 101.02     Mostly Cloudy
16:00 Legend Double Dagger 6.8 3.4 79 19 44 24.1 100.94     LegendNANA
17:00 Legend Double Dagger 6.9 4.6 85 19 36 24.1 100.80     LegendNANA
18:00 Legend Double Dagger 6.9 5.1 89 19 32 24.1 100.74     Cloudy
19:00 Legend Double Dagger 6.7 5.5 93 19 32 16.1 100.70     Drizzle
20:00 Legend Double Dagger 6.9 5.9 93 19 32 16.1 100.56     Drizzle
21:00 Legend Double Dagger 7.0 6.0 93 19 32 16.1 100.49     Cloudy
22:00 Legend Double Dagger 7.3 6.2 93 19 26 16.1 100.40     Rain
23:00 Legend Double Dagger 7.2 6.4 95 17 19 24.1 100.23     Rain

Notes on Data Quality.

Legend

  • E = Estimated
  • M = Missing
  • NA = Not Available
  • ‡ = Partner data that is not subject to review by the National Climate Archives
Date modified: